Location: Gesvres
(49.0440°N, 2.8518°E)
Time: 06:50:02
(UTC+00:00)

ATLAS 5 CENTAUR R/B - Pass Details

Date: 28 January 2023
Orbit: 460 x 1178 km, 63.3° (Epoch: 19 March)

Event Time Altitude Azimuth Distance (km) Brightness Sun altitude
Rises 17:10:53 0° 233° (SW) 2,497 6.5 -5.7°
Reaches altitude 10° 17:12:56 10° 238° (WSW) 1,656 5.4 -6.0°
Maximum altitude 17:16:30 56° 317° (NW) 624 1.8 -6.5°
Drops below altitude 10° 17:20:37 10° 36° (NE) 1,901 3.6 -7.1°
Enters shadow 17:21:44 - 39° (NE) 2,353 4.0 -7.3°
